DLH62C EKCH-EDDF

Flight info

Callsign DLH62C
Flight time 1h 3m
Altitude 28000
Route NEXEN T503 GIMRU DCT MICOS DCT RIMET T157 KERAX KERAX5A
Aircraft A343/H-SDE2E3FGHIJ4J5M1RWXY/LB1D1

Departure

Time 2026-05-04 09:07
Airport Copenhagen Kastrup Airport (EKCH)

Arrival

Time 2026-05-04 10:10
Airport Frankfurt Main Airport (EDDF)
Time Latitude Longitude Altitude Speed Heading
2026-05-04 08:44 55.62363 12.65064 28 ft 0 kts 276°
2026-05-04 08:57 55.62378 12.65199 28 ft 4 kts 190°
2026-05-04 09:01 55.62382 12.65202 28 ft 3 kts 179°
2026-05-04 09:01 55.62351 12.65204 28 ft 6 kts 178°
2026-05-04 09:01 55.62307 12.65196 28 ft 7 kts 200°
2026-05-04 09:01 55.62277 12.65129 28 ft 7 kts 250°
2026-05-04 09:02 55.62288 12.65048 28 ft 8 kts 297°
2026-05-04 09:02 55.62324 12.64950 28 ft 10 kts 303°
2026-05-04 09:02 55.62355 12.64864 28 ft 7 kts 296°
2026-05-04 09:02 55.62348 12.64786 28 ft 7 kts 248°
2026-05-04 09:03 55.62325 12.64700 28 ft 8 kts 246°
2026-05-04 09:03 55.62298 12.64592 28 ft 11 kts 246°
2026-05-04 09:03 55.62260 12.64439 26 ft 15 kts 246°
2026-05-04 09:03 55.62180 12.64326 26 ft 15 kts 205°
2026-05-04 09:04 55.62085 12.64248 28 ft 15 kts 205°
2026-05-04 09:04 55.61993 12.64170 28 ft 14 kts 205°
2026-05-04 09:04 55.61931 12.64118 28 ft 10 kts 205°
2026-05-04 09:04 55.61854 12.64068 28 ft 13 kts 187°
2026-05-04 09:05 55.61759 12.64080 28 ft 14 kts 175°
2026-05-04 09:05 55.61682 12.64090 30 ft 8 kts 175°
2026-05-04 09:05 55.61632 12.64076 31 ft 7 kts 205°
2026-05-04 09:05 55.61578 12.63996 30 ft 24 kts 221°
2026-05-04 09:06 55.61274 12.63526 31 ft 90 kts 221°
2026-05-04 09:07 55.54119 12.53306 3689 ft 248 kts 219°
2026-05-04 09:08 55.52678 12.51550 4715 ft 254 kts 219°
2026-05-04 09:08 55.52569 12.51417 4808 ft 254 kts 219°
2026-05-04 09:08 55.51135 12.49576 5901 ft 256 kts 225°
2026-05-04 09:08 55.49933 12.47335 6945 ft 255 kts 234°
2026-05-04 09:09 55.48810 12.44911 8009 ft 255 kts 234°
2026-05-04 09:09 55.47702 12.42461 9057 ft 256 kts 235°
2026-05-04 09:09 55.46594 12.39992 10057 ft 258 kts 235°
2026-05-04 09:09 55.45455 12.37431 10614 ft 275 kts 235°
2026-05-04 09:10 55.44236 12.34665 10993 ft 296 kts 235°
2026-05-04 09:10 55.42937 12.31695 11330 ft 316 kts 235°
2026-05-04 09:10 55.41508 12.28627 11797 ft 332 kts 229°
2026-05-04 09:10 55.39757 12.25887 12498 ft 341 kts 222°
2026-05-04 09:11 55.37883 12.23368 13291 ft 346 kts 219°
2026-05-04 09:11 55.35898 12.20915 14069 ft 351 kts 218°
2026-05-04 09:11 55.33862 12.18514 14848 ft 354 kts 217°
2026-05-04 09:11 55.31796 12.16124 15619 ft 357 kts 217°
2026-05-04 09:12 55.29712 12.13722 16376 ft 359 kts 217°
2026-05-04 09:12 55.27618 12.11298 17160 ft 362 kts 217°
2026-05-04 09:14 55.12566 11.93718 21807 ft 382 kts 217°
2026-05-04 09:14 55.10351 11.91140 22441 ft 384 kts 217°
2026-05-04 09:14 55.08117 11.88543 23038 ft 387 kts 217°
2026-05-04 09:14 55.05865 11.85927 23594 ft 390 kts 217°
2026-05-04 09:15 55.03597 11.83289 24062 ft 393 kts 217°
2026-05-04 09:15 55.01310 11.80641 24530 ft 396 kts 217°
2026-05-04 09:15 54.99041 11.78021 24998 ft 398 kts 217°
2026-05-04 09:15 54.96725 11.75350 25449 ft 400 kts 217°
2026-05-04 09:17 54.77904 11.53766 27952 ft 413 kts 218°
2026-05-04 09:18 54.75503 11.51033 27948 ft 413 kts 218°
2026-05-04 09:18 54.73102 11.48302 27950 ft 413 kts 218°
2026-05-04 09:18 54.70700 11.45575 27944 ft 412 kts 218°
2026-05-04 09:18 54.68313 11.42870 27958 ft 409 kts 218°
2026-05-04 09:19 54.65934 11.40176 27956 ft 408 kts 218°
2026-05-04 09:19 54.63559 11.37488 27982 ft 408 kts 218°
2026-05-04 09:19 54.61212 11.34834 27959 ft 409 kts 218°
2026-05-04 09:19 54.58828 11.32141 27957 ft 410 kts 218°
2026-05-04 09:20 54.56438 11.29447 27959 ft 411 kts 218°
2026-05-04 09:20 54.54045 11.26755 27958 ft 411 kts 218°
2026-05-04 09:20 54.51652 11.24068 27963 ft 411 kts 218°
2026-05-04 09:20 54.49260 11.21384 27963 ft 411 kts 218°
2026-05-04 09:21 54.46868 11.18706 27958 ft 410 kts 218°
2026-05-04 09:21 54.44517 11.16079 27969 ft 407 kts 218°
2026-05-04 09:21 54.42146 11.13431 27969 ft 407 kts 218°
2026-05-04 09:21 54.39773 11.10783 27969 ft 406 kts 218°
2026-05-04 09:22 54.37403 11.08141 27969 ft 406 kts 218°
2026-05-04 09:22 54.35031 11.05500 27968 ft 407 kts 218°
2026-05-04 09:22 54.32605 11.02981 27969 ft 410 kts 214°
2026-05-04 09:22 54.29987 11.00967 27968 ft 416 kts 206°
2026-05-04 09:23 54.27185 10.99562 27969 ft 422 kts 201°
2026-05-04 09:23 54.24345 10.98527 27936 ft 425 kts 197°
2026-05-04 09:23 54.21421 10.97670 27972 ft 428 kts 196°
2026-05-04 09:23 54.18472 10.96896 27967 ft 429 kts 195°
2026-05-04 09:25 53.97853 10.91337 27977 ft 430 kts 196°
2026-05-04 09:25 53.94894 10.90506 27987 ft 432 kts 196°
2026-05-04 09:26 53.91925 10.89676 27989 ft 433 kts 196°
2026-05-04 09:26 53.88950 10.88847 27990 ft 433 kts 196°
2026-05-04 09:26 53.85974 10.88021 27992 ft 433 kts 196°
2026-05-04 09:26 53.82995 10.87196 27993 ft 434 kts 196°
2026-05-04 09:27 53.80060 10.86385 27992 ft 433 kts 196°
2026-05-04 09:27 53.77083 10.85560 27993 ft 434 kts 196°
2026-05-04 09:27 53.74105 10.84737 27971 ft 434 kts 195°
2026-05-04 09:27 53.71117 10.83912 27996 ft 436 kts 195°
2026-05-04 09:28 53.68119 10.83086 27991 ft 437 kts 195°
2026-05-04 09:28 53.65115 10.82261 27989 ft 437 kts 195°
2026-05-04 09:28 53.62112 10.81438 27990 ft 437 kts 195°
2026-05-04 09:28 53.59105 10.80615 27991 ft 437 kts 195°
2026-05-04 09:29 53.56103 10.79794 27983 ft 437 kts 195°
2026-05-04 09:29 53.53139 10.78984 27976 ft 437 kts 195°
2026-05-04 09:29 53.50135 10.78163 27963 ft 437 kts 195°
2026-05-04 09:29 53.47128 10.77343 27982 ft 438 kts 195°
2026-05-04 09:30 53.44118 10.76524 27981 ft 438 kts 195°
2026-05-04 09:30 53.41108 10.75707 27982 ft 438 kts 195°
2026-05-04 09:30 53.38098 10.74891 27982 ft 438 kts 195°
2026-05-04 09:30 53.35090 10.74077 27982 ft 438 kts 195°
2026-05-04 09:31 53.32083 10.73264 27974 ft 438 kts 195°
2026-05-04 09:31 53.29071 10.72450 27974 ft 438 kts 195°
2026-05-04 09:31 53.26105 10.71650 27963 ft 438 kts 194°
2026-05-04 09:31 53.23096 10.70840 27968 ft 438 kts 194°
2026-05-04 09:32 53.20083 10.70030 27975 ft 438 kts 194°
2026-05-04 09:32 53.17073 10.69222 27974 ft 438 kts 194°
2026-05-04 09:34 52.96051 10.63605 27984 ft 438 kts 194°
2026-05-04 09:34 52.93043 10.62807 27976 ft 438 kts 194°
2026-05-04 09:34 52.90032 10.62008 27979 ft 438 kts 194°
2026-05-04 09:34 52.87025 10.61212 27977 ft 438 kts 194°
2026-05-04 09:35 52.84017 10.60417 27983 ft 438 kts 194°
2026-05-04 09:35 52.81006 10.59622 27982 ft 438 kts 194°
2026-05-04 09:35 52.78039 10.58839 27982 ft 438 kts 194°
2026-05-04 09:35 52.75033 10.58047 27981 ft 438 kts 194°
2026-05-04 09:37 52.54024 10.52544 27986 ft 438 kts 194°
2026-05-04 09:37 52.51014 10.51758 27978 ft 438 kts 193°
2026-05-04 09:38 52.48003 10.50962 27991 ft 439 kts 193°
2026-05-04 09:38 52.44991 10.50177 27994 ft 439 kts 193°
2026-05-04 09:38 52.41972 10.49398 27991 ft 439 kts 193°
2026-05-04 09:38 52.38953 10.48621 27996 ft 439 kts 193°
2026-05-04 09:39 52.35934 10.47844 27991 ft 439 kts 193°
2026-05-04 09:39 52.32919 10.47068 27992 ft 439 kts 193°
2026-05-04 09:39 52.29942 10.46301 27982 ft 439 kts 193°
2026-05-04 09:39 52.26923 10.45523 27990 ft 439 kts 193°
2026-05-04 09:40 52.23903 10.44746 27992 ft 440 kts 193°
2026-05-04 09:40 52.20879 10.43969 27991 ft 440 kts 193°
2026-05-04 09:40 52.17853 10.43193 27993 ft 440 kts 193°
2026-05-04 09:40 52.14832 10.42418 27994 ft 440 kts 193°
2026-05-04 09:41 52.11805 10.41643 27995 ft 440 kts 193°
2026-05-04 09:42 51.90638 10.36257 28001 ft 441 kts 192°
2026-05-04 09:43 51.84571 10.34723 27999 ft 441 kts 192°
2026-05-04 09:43 51.81576 10.33967 27994 ft 441 kts 192°
2026-05-04 09:43 51.78544 10.33203 28001 ft 441 kts 192°
2026-05-04 09:44 51.72477 10.31678 28004 ft 441 kts 192°
2026-05-04 09:46 51.48879 10.22452 28006 ft 436 kts 205°
2026-05-04 09:46 51.43255 10.18816 27870 ft 436 kts 205°
2026-05-04 09:47 51.40446 10.17000 27561 ft 436 kts 205°
2026-05-04 09:47 51.37633 10.15184 27205 ft 435 kts 205°
2026-05-04 09:49 51.18916 10.03159 23825 ft 396 kts 205°
2026-05-04 09:49 51.16371 10.01531 23321 ft 392 kts 205°
2026-05-04 09:49 51.13861 9.99927 22812 ft 384 kts 204°
2026-05-04 09:51 50.99431 9.90741 19921 ft 365 kts 203°
2026-05-04 09:51 50.97077 9.89249 19473 ft 363 kts 203°
2026-05-04 09:51 50.94741 9.87770 19050 ft 361 kts 203°
2026-05-04 09:51 50.92415 9.86298 18628 ft 359 kts 202°
2026-05-04 09:52 50.90134 9.84856 18189 ft 357 kts 202°
2026-05-04 09:52 50.87828 9.83401 17708 ft 356 kts 202°
2026-05-04 09:52 50.85533 9.81955 17242 ft 354 kts 202°
2026-05-04 09:52 50.83255 9.80521 16762 ft 351 kts 202°
2026-05-04 09:53 50.80989 9.79095 16305 ft 350 kts 202°
2026-05-04 09:53 50.78733 9.77677 15847 ft 348 kts 202°
2026-05-04 09:53 50.76487 9.76267 15404 ft 346 kts 202°
2026-05-04 09:53 50.74251 9.74865 14967 ft 345 kts 202°
2026-05-04 09:54 50.72027 9.73472 14530 ft 344 kts 202°
2026-05-04 09:54 50.69838 9.72101 14116 ft 342 kts 202°
2026-05-04 09:54 50.67631 9.70721 13660 ft 341 kts 202°
2026-05-04 09:54 50.65437 9.69350 13190 ft 338 kts 202°
2026-05-04 09:55 50.63260 9.67993 12710 ft 334 kts 202°
2026-05-04 09:55 50.61193 9.66423 12254 ft 327 kts 214°
2026-05-04 09:55 50.59434 9.64205 11816 ft 322 kts 223°
2026-05-04 09:55 50.57801 9.61820 11381 ft 319 kts 224°
2026-05-04 09:56 50.56191 9.59440 10961 ft 317 kts 224°
2026-05-04 09:56 50.54587 9.57070 10530 ft 315 kts 224°
2026-05-04 09:56 50.53014 9.54755 10112 ft 313 kts 224°
2026-05-04 09:56 50.51450 9.52459 9639 ft 300 kts 224°
2026-05-04 09:57 50.49960 9.50279 9150 ft 286 kts 223°
2026-05-04 09:57 50.48536 9.48198 8686 ft 274 kts 224°
2026-05-04 09:57 50.47148 9.46172 8218 ft 273 kts 224°
2026-05-04 09:57 50.45751 9.44127 7779 ft 276 kts 224°
2026-05-04 09:58 50.44347 9.42071 7337 ft 276 kts 224°
2026-05-04 09:58 50.42954 9.40029 7007 ft 272 kts 223°
2026-05-04 09:58 50.42043 9.38692 6819 ft 270 kts 224°
2026-05-04 10:00 50.32243 9.24364 4899 ft 258 kts 224°
2026-05-04 10:00 50.30950 9.22449 4642 ft 255 kts 223°
2026-05-04 10:02 50.22987 9.10758 4036 ft 226 kts 224°
2026-05-04 10:04 50.15341 8.99620 4008 ft 204 kts 224°
2026-05-04 10:04 50.14301 8.98106 4020 ft 204 kts 223°
2026-05-04 10:04 50.13329 8.96499 4011 ft 204 kts 233°
2026-05-04 10:04 50.12617 8.94625 4038 ft 204 kts 245°
2026-05-04 10:05 50.12084 8.92578 4012 ft 203 kts 249°
2026-05-04 10:05 50.11595 8.90509 4018 ft 204 kts 249°
2026-05-04 10:05 50.11108 8.88438 4006 ft 200 kts 249°
2026-05-04 10:05 50.10643 8.86473 4038 ft 185 kts 249°
2026-05-04 10:06 50.10195 8.84634 3941 ft 181 kts 248°
2026-05-04 10:06 50.09753 8.82812 3663 ft 180 kts 249°
2026-05-04 10:06 50.09323 8.80993 3404 ft 184 kts 249°
2026-05-04 10:08 50.06779 8.70288 1933 ft 145 kts 248°
2026-05-04 10:08 50.06445 8.68887 1735 ft 131 kts 247°
2026-05-04 10:08 50.06135 8.67586 1590 ft 128 kts 248°
2026-05-04 10:08 50.05821 8.66271 1424 ft 130 kts 248°
2026-05-04 10:09 50.05515 8.64977 1258 ft 129 kts 248°
2026-05-04 10:09 50.05204 8.63666 1086 ft 129 kts 248°
2026-05-04 10:09 50.04894 8.62352 943 ft 131 kts 250°
2026-05-04 10:09 50.04572 8.61037 731 ft 129 kts 249°
2026-05-04 10:10 50.04265 8.59734 519 ft 127 kts 250°
2026-05-04 10:10 50.03957 8.58451 381 ft 125 kts 248°
2026-05-04 10:10 50.03701 8.57380 364 ft 81 kts 249°
2026-05-04 10:10 50.03542 8.56716 360 ft 38 kts 249°
2026-05-04 10:11 50.03486 8.56475 362 ft 22 kts 249°
2026-05-04 10:11 50.03445 8.56282 362 ft 18 kts 258°
2026-05-04 10:11 50.03437 8.56084 360 ft 18 kts 272°
2026-05-04 10:11 50.03452 8.55924 354 ft 12 kts 279°
2026-05-04 10:12 50.03462 8.55832 353 ft 8 kts 279°
2026-05-04 10:12 50.03464 8.55808 357 ft 2 kts 279°
2026-05-04 10:12 50.03470 8.55758 354 ft 8 kts 279°
2026-05-04 10:12 50.03481 8.55654 356 ft 11 kts 279°
2026-05-04 10:13 50.03495 8.55522 357 ft 13 kts 275°
2026-05-04 10:13 50.03470 8.55377 357 ft 15 kts 248°
2026-05-04 10:13 50.03432 8.55221 356 ft 17 kts 249°
2026-05-04 10:13 50.03397 8.55076 356 ft 12 kts 250°
2026-05-04 10:14 50.03365 8.54941 352 ft 15 kts 250°
2026-05-04 10:14 50.03328 8.54784 355 ft 15 kts 249°
2026-05-04 10:16 50.03574 8.54331 354 ft 3 kts 340°
2026-05-04 10:16 50.03599 8.54316 353 ft 5 kts 339°
2026-05-04 10:16 50.03606 8.54312 351 ft 0 kts 339°
2026-05-04 10:16 50.03621 8.54304 355 ft 5 kts 344°
2026-05-04 10:17 50.03655 8.54330 346 ft 6 kts 45°
2026-05-04 10:17 50.03680 8.54408 355 ft 10 kts 70°
2026-05-04 10:19 50.03894 8.55303 362 ft 16 kts 70°
2026-05-04 10:19 50.03925 8.55441 361 ft 12 kts 71°
2026-05-04 10:19 50.03958 8.55572 363 ft 11 kts 68°
2026-05-04 10:19 50.03987 8.55694 360 ft 13 kts 69°
2026-05-04 10:20 50.04020 8.55831 359 ft 14 kts 70°
2026-05-04 10:20 50.04054 8.55973 362 ft 14 kts 69°
2026-05-04 10:20 50.04088 8.56115 362 ft 14 kts 70°
2026-05-04 10:20 50.04124 8.56267 364 ft 14 kts 69°
2026-05-04 10:21 50.04160 8.56417 364 ft 15 kts 70°
2026-05-04 10:21 50.04191 8.56548 365 ft 10 kts 69°
2026-05-04 10:21 50.04216 8.56652 365 ft 11 kts 70°
2026-05-04 10:21 50.04237 8.56743 365 ft 7 kts 70°
2026-05-04 10:22 50.04309 8.56816 366 ft 7 kts 11°
2026-05-04 10:22 50.04365 8.56833 369 ft 9 kts 11°
2026-05-04 10:22 50.04438 8.56851 369 ft 12 kts
2026-05-04 10:23 50.04513 8.56877 363 ft 11 kts 13°
2026-05-04 10:23 50.04567 8.56896 368 ft 9 kts 13°
2026-05-04 10:25 50.04796 8.56937 368 ft 0 kts 294°